sat.trackr.live / text

‹ back to catalog

STARLINK-3287

NORAD 50172 · 2021-125S

PAYLOAD ACTIVE UNKNOWN

§ Identity

Operator
Country
US
Launch date
2021-12-18
Launch site
AFWTR
Launch vehicle
Mass (kg)
RCS (m²)

Purposes: comms

External: N2YO · Heavens-Above · Gunter

§ Orbital elements

Epoch: 2026-09-19T23:35:31.649280Z

Period
93.85 min
Inclination
53.1607°
Eccentricity
0.0001273
Mean motion
15.34391631 rev/d
Perigee alt
461.9 km
Apogee alt
463.6 km
Semi-major
6,840.9 km
B*
1.1250e-5
RAAN
85.7900°
Arg perigee
83.9092°
Mean anomaly
276.2056°
Rev number
26,611

§ Raw data

STARLINK-32871 50172U 21125S   26262.98300520  .00000004  00000+0  11250-4 0  99972 50172  53.1607  85.7900 0001273  83.9092 276.2056 15.34391631266112

JSON: /api/v1/satellites/50172 · /tle

For live sub-satellite position, see the globe view (requires WebGL).

§ Visibility from observer

Set your observer location to see the next 7 days of passes ≥ 10°. The values pass through the URL so the page stays shareable.

No JS? Fill the form by hand. The geolocation button needs JavaScript.